Location: Corte Bragagnani
(45.3000°N, 11.1000°E)
Time: 23:04:51
(UTC+00:00)

STARLINK-1200 - Pass Details

Date: 09 April 2020
Orbit: 549 x 550 km, 53.0° (Epoch: 24 May)

Event Time Altitude Azimuth Distance (km) Brightness Sun altitude
Rises 19:45:02 0° 302° (WNW) 2,725 8.9 -18.7°
Reaches altitude 10° 19:47:18 10° 305° (NW) 1,829 7.5 -19.0°
Maximum altitude 19:51:26 66° 28° (NNE) 605 3.7 -19.6°
Enters shadow 19:52:20 49° 86° (E) 714 3.8 -19.8°
